DW8016 Weather Reports


time (UTC)temp
C
wind
direction
speed
KPH
gust
KPH
rain 1hr
cm
rain 24hr
cm
rain mn
cm
humidity
%
barometer
mb
20260906222015 26 5 0.0 3.2 0.00 0.00 0.00 53 1014.3
20260906220944 27 5 0.0 0.0 0.00 0.00 0.00 53 1014.1
20260906215921 27 346 0.0 4.8 0.00 0.00 0.00 52 1014.1
20260906214946 27 5 0.0 4.8 0.00 0.00 0.00 52 1014.1
20260906214009 27 5 0.0 4.8 0.00 0.00 0.00 51 1014.0
20260906212945 27 15 0.0 4.8 0.00 0.00 0.00 51 1014.0
20260906211934 27 49 0.0 1.6 0.00 0.00 0.00 49 1014.0
20260906210903 28 35 0.0 8.0 0.00 0.00 0.00 45 1014.1
20260906205853 28 11 1.6 9.7 0.00 0.00 0.00 49 1014.1
20260906204902 27 25 0.0 11.3 0.00 0.00 0.00 50 1013.9
20260906203921 27 17 1.6 11.3 0.00 0.00 0.00 47 1013.8
20260906202928 27 263 0.0 4.8 0.00 0.00 0.00 51 1013.8
20260906201857 27 0 1.6 9.7 0.00 0.00 0.00 52 1013.8
20260906200906 28 315 0.0 9.7 0.00 0.00 0.00 48 1013.7
20260906195900 28 338 0.0 6.4 0.00 0.00 0.00 50 1013.7
20260906194855 27 9 0.0 0.0 0.00 0.00 0.00 49 1013.7
20260906193842 28 5 0.0 6.4 0.00 0.00 0.00 49 1013.8
20260906192902 28 54 0.0 8.0 0.00 0.00 0.00 49 1013.8
20260906191833 28 11 0.0 6.4 0.00 0.00 0.00 48 1013.9
20260906190830 28 238 0.0 4.8 0.00 0.00 0.00 50 1014.0
20260906185757 27 22 0.0 0.0 0.00 0.00 0.00 51 1014.1
20260906184730 28 17 0.0 4.8 0.00 0.00 0.00 51 1014.2
20260906183722 27 5 0.0 0.0 0.00 0.00 0.00 51 1014.2
20260906182732 28 77 0.0 8.0 0.00 0.00 0.00 48 1014.4
20260906181714 28 347 0.0 4.8 0.00 0.00 0.00 50 1014.3
20260906180729 28 32 0.0 11.3 0.00 0.00 0.00 49 1014.4
20260906175711 28 93 3.2 11.3 0.00 0.00 0.00 50 1014.4
20260906174721 28 113 0.0 6.4 0.00 0.00 0.00 50 1014.5
20260906173712 29 355 0.0 4.8 0.00 0.00 0.00 50 1014.7
20260906172730 29 25 0.0 4.8 0.00 0.00 0.00 46 1014.7
20260906171736 28 355 1.6 6.4 0.00 0.00 0.00 51 1014.8
20260906170748 28 315 0.0 0.0 0.00 0.00 0.00 51 1014.8
20260906162329 27 133 1.6 9.7 0.00 0.00 0.00 52 1015.0
20260906161345 28 5 1.6 9.7 0.00 0.00 0.00 51 1015.0
20260906160335 27 355 1.6 8.0 0.00 0.00 0.00 53 1015.1
20260906155315 27 9 1.6 9.7 0.00 0.00 0.00 57 1015.1
20260906154330 26 12 1.6 9.7 0.00 0.00 0.00 58 1015.2
20260906153313 27 355 1.6 6.4 0.00 0.00 0.00 56 1015.2
20260906152300 27 0 1.6 6.4 0.00 0.00 0.00 55 1015.4
20260906151239 27 350 0.0 6.4 0.00 0.00 0.00 58 1015.2
20260906145059 26 40 1.6 9.7 0.00 0.00 0.00 61 1015.0
20260906144118 26 105 1.6 9.7 0.00 0.00 0.00 61 1015.0
20260906143059 26 317 0.0 3.2 0.00 0.00 0.00 63 1015.0
20260906142110 25 317 0.0 4.8 0.00 0.00 0.00 62 1015.0
20260906141056 25 309 0.0 4.8 0.00 0.00 0.00 65 1015.0
20260906140108 25 298 0.0 3.2 0.00 0.00 0.00 65 1014.9
20260906135119 24 78 0.0 1.6 0.00 0.00 0.00 67 1014.9
20260906133012 23 67 0.0 0.0 0.00 0.00 0.00 69 1015.0
20260906132027 23 59 0.0 0.0 0.00 0.00 0.00 71 1014.9
20260906131005 22 355 0.0 3.2 0.00 0.00 0.00 73 1014.9
20260906125943 22 161 0.0 0.0 0.00 0.00 0.00 76 1014.8
20260906124957 21 161 0.0 0.0 0.00 0.00 0.00 78 1014.8
20260906124018 21 161 0.0 0.0 0.00 0.00 0.00 80 1014.8
20260906123024 21 161 0.0 1.6 0.00 0.00 0.00 79 1014.7
20260906122004 20 161 0.0 0.0 0.00 0.00 0.00 82 1014.6
20260906121016 20 161 0.0 0.0 0.00 0.00 0.00 84 1014.5
20260906120027 18 161 0.0 0.0 0.00 0.00 0.00 86 1014.4
20260906115003 18 161 0.0 0.0 0.00 0.00 0.00 89 1014.3
20260906112848 17 161 0.0 0.0 0.00 0.00 0.00 93 1014.2
20260906111912 17 161 0.0 0.0 0.00 0.00 0.00 94 1014.1
20260906110908 16 165 0.0 0.0 0.00 0.00 0.00 93 1014.1
20260906103531 16 165 0.0 0.0 0.00 0.00 0.00 92 1013.5
20260906102536 16 165 0.0 0.0 0.00 0.00 0.00 92 1013.3
20260906101547 16 165 0.0 0.0 0.00 0.00 0.00 92 1013.2
20260906100516 16 165 0.0 0.0 0.00 0.00 0.00 92 1013.1
20260906095513 16 165 0.0 0.0 0.00 0.00 0.00 92 1012.9
20260906093348 17 165 0.0 0.0 0.00 0.00 0.00 92 1012.9
20260906092402 17 165 0.0 0.0 0.00 0.00 0.00 92 1012.8
20260906091337 17 165 0.0 0.0 0.00 0.00 0.00 92 1012.6
20260906090308 17 165 0.0 0.0 0.00 0.00 0.00 92 1012.5
20260906085256 17 165 0.0 0.0 0.00 0.00 0.00 91 1012.4
20260906084226 17 165 0.0 0.0 0.00 0.00 0.00 91 1012.4
20260906083235 17 165 0.0 0.0 0.00 0.00 0.00 92 1012.3
20260906082234 17 165 0.0 0.0 0.00 0.00 0.00 91 1012.3
20260906081252 17 165 0.0 0.0 0.00 0.00 0.00 91 1012.3
20260906080314 17 165 0.0 0.0 0.00 0.00 0.00 91 1012.2
20260906075249 17 165 0.0 0.0 0.00 0.00 0.00 91 1012.2
20260906074220 18 165 0.0 0.0 0.00 0.00 0.00 91 1012.2
20260906073206 18 165 0.0 0.0 0.00 0.00 0.00 91 1012.2
20260906072222 18 165 0.0 0.0 0.00 0.00 0.00 91 1012.1
20260906070139 18 165 0.0 0.0 0.00 0.00 0.00 90 1012.1
20260906065135 18 165 0.0 0.0 0.00 0.00 0.00 90 1012.1
20260906064147 18 165 0.0 0.0 0.00 0.00 0.00 90 1012.0
20260906063154 18 165 0.0 0.0 0.00 0.00 0.00 90 1011.9
20260906062125 18 165 0.0 0.0 0.00 0.00 0.00 89 1012.1
20260906061110 19 165 0.0 0.0 0.00 0.00 0.00 89 1012.1
20260906060039 19 165 0.0 0.0 0.00 0.00 0.00 89 1012.1
20260906055102 19 165 0.0 0.0 0.00 0.00 0.00 89 1012.1
20260906054120 19 165 0.0 0.0 0.00 0.00 0.00 88 1012.0
20260906053127 20 165 0.0 0.0 0.00 0.00 0.00 87 1012.0
20260906052141 20 165 0.0 0.0 0.00 0.00 0.00 86 1012.1
20260906051124 20 165 0.0 0.0 0.00 0.00 0.00 86 1012.2
20260906050100 20 165 0.0 0.0 0.00 0.00 0.00 85 1012.2
20260906045027 21 165 0.0 0.0 0.00 0.00 0.00 85 1012.3
20260906044011 21 165 0.0 0.0 0.00 0.00 0.00 84 1012.4
20260906043033 21 165 0.0 0.0 0.00 0.00 0.00 82 1012.5
20260906042008 21 165 0.0 0.0 0.00 0.00 0.00 81 1012.6
20260906041020 22 165 0.0 0.0 0.00 0.00 0.00 81 1012.5
20260906034907 22 165 0.0 0.0 0.00 0.00 0.00 81 1012.3
20260906033844 22 165 0.0 0.0 0.00 0.00 0.00 79 1012.3
20260906032814 23 165 0.0 0.0 0.00 0.00 0.00 79 1012.4
20260906031826 23 165 0.0 0.0 0.00 0.00 0.00 78 1012.6
20260906030830 23 165 0.0 0.0 0.00 0.00 0.00 76 1012.5
20260906025812 23 165 0.0 0.0 0.00 0.00 0.00 75 1012.4
20260906024824 23 165 0.0 0.0 0.00 0.00 0.00 76 1012.2
20260906020356 24 165 0.0 0.0 0.00 0.00 0.00 73 1012.3
20260906014244 24 165 0.0 0.0 0.00 0.00 0.00 73 1012.1
20260906013308 24 165 0.0 0.0 0.00 0.00 0.00 73 1011.9
20260906012331 24 165 0.0 0.0 0.00 0.00 0.00 72 1011.8
20260906011341 24 165 0.0 0.0 0.00 0.00 0.00 72 1011.8
20260906010345 24 165 0.0 0.0 0.00 0.00 0.00 71 1011.5
20260906005400 25 165 0.0 0.0 0.00 0.00 0.00 71 1011.5
20260906004405 25 165 0.0 0.0 0.00 0.00 0.00 71 1011.3
20260906003359 25 165 0.0 0.0 0.00 0.00 0.00 71 1011.3
20260906002345 25 165 0.0 0.0 0.00 0.00 0.00 71 1011.2
20260906001405 25 165 0.0 0.0 0.00 0.00 0.00 70 1011.2
20260906000410 25 165 0.0 0.0 0.00 0.00 0.00 70 1011.1
20260905235348 25 165 0.0 0.0 0.00 0.00 0.00 70 1011.0
20260905234338 25 165 0.0 0.0 0.00 0.00 0.00 72 1011.0
20260905232248 26 165 0.0 0.0 0.00 0.00 0.00 73 1010.7
20260905231247 26 165 0.0 0.0 0.00 0.00 0.00 71 1010.6
20260905225110 26 165 0.0 0.0 0.00 0.00 0.00 67 1010.6
20260905224110 26 165 0.0 0.0 0.00 0.00 0.00 66 1010.5
20260905223046 27 165 0.0 0.0 0.00 0.00 0.00 66 1010.4